User: anonymous   Login
Location: Unspecified
(0.0000°N, 0.0000°E)
Time: 13:00:25
(UTC+00:00)
Language:

GALILEO 12 (269) - Orbit

View from above orbital plane
View from above orbital plane
View from above satellite
View from above satellite

Ground track
Ground track

The orbit data is extracted from the following two-line orbital elements,

1 41174U 15079A   17352.01038966  .00000082  00000-0  00000+0 0  9999
2 41174  54.9179 186.6357 0002999 314.9092  45.1251  1.70473597 12450
Epoch (UTC): 18 December 2017 00:14:57
Eccentricity: 0.0002999
inclination: 54.9179°
perigee height: 23213 km
apogee height: 23231 km
right ascension of ascending node: 186.6357°
argument of perigee: 314.9092°
revolutions per day: 1.70473597
mean anomaly at epoch: 45.1251°
orbit number at epoch: 1245

The dashed part of the orbit path shows where the satellite is in the earth's shadow,  

DLR